Simultaneous Nadir Overpasses (SNOs) Predictions

Prediction of SNOs between LANDSAT-8 and METOP-B Satellite Orbit:

Table of predicted SNOs for the next 14.0 days since TLE Epoch: 8/14/2015
Index Date (LANDSAT-8) Time (LANDSAT-8) Lat,Lon (LANDSAT-8) SZA (LANDSAT-8 ) Date (METOP-B) Time (METOP-B) Lat,Lon (METOP-B) SZA (METOP-B ) Distance(km) Time Diff (sec)
1 08/17/2015 00:43:14 81.12,-150.87 69.55 08/17/2015 00:42:22 81.11,-151.02 69.51 2.62 52
2 08/17/2015 01:32:40 -81.14, 17.08 110.40 08/17/2015 01:33:01 -81.14, 17.17 110.37 1.71 21
3 08/19/2015 20:17:30 81.13, -84.20 70.51 08/19/2015 20:16:44 81.13, -84.26 70.48 1.22 46
4 08/19/2015 21:06:56 -81.15, 83.77 109.44 08/19/2015 21:07:23 -81.16, 83.95 109.41 3.12 27
5 08/22/2015 15:51:47 81.12, -17.96 71.42 08/22/2015 15:51:07 81.13, -17.89 71.42 1.31 40
6 08/22/2015 16:41:13 -81.14, 150.04 108.52 08/22/2015 16:41:47 -81.14, 149.97 108.51 1.19 34
7 08/25/2015 11:26:02 81.13, 48.60 72.41 08/25/2015 11:25:29 81.12, 48.48 72.39 2.11 33
8 08/25/2015 12:15:28 -81.15,-143.37 107.52 08/25/2015 12:16:08 -81.16,-143.26 107.49 2.04 40
9 08/28/2015 07:00:18 81.13, 115.11 73.42 08/28/2015 06:59:51 81.14, 115.23 73.43 2.07 27




NCC Satellite Simultaneous Nadir Overpasses (SNOs) Prediction Service
